STARLINK-38348, 100628

Orbit data source: Space-Track

STARLINK-38348, 100628 is a payload satellite owned by SpaceX/Seattle (US) in LEO that was launched on Sun, 06 Sep 2026 UTC launched from the Air Force Western Test Range (AFWTR). Payload-class satellites include a variety of spacecraft equipped with specific instruments for various scientific and technological missions. These include communications satellites like Starlink; space stations such as the ISS; scientific satellites like the Hubble; Earth observation satellites from companies like Planet Labs, Umbra, and HawkEye 360; GPS; miniature CubeSats for education and research; and military/defense satellites.

Not visible in the next 10 days
Identifier
100628, 2026-204P
Orbit
LEO
Country
Flag of USUS
Related business
Manufacturer
SpaceX/Seattle
Mission
Operational spacecraft
Bus & Motor
STARLINK V2MO, Unknown motor
Mass
575 kg wet, ~530 kg dry
Launch date (UTC)
2026-09-06 (5 days ago)
Launch vehicle
Unknown
Launch site
Air Force Western Test Range (AFWTR)
Object type
Payload
Rocket body
Debris
Shape & HBR
BOX + PAN, 17.7 m
Radar Cross Section
RCS unknown

Expand to show TLE details & history
Last TLE update: 21 hours ago

TLE from 21 hours ago
0 STARLINK-38348
1 A0628U          26253.56682553 -.01184845  45592-3 -21571-2 0  9993
2 A0628  69.9972 266.2420 0005117 274.5647  85.4980 16.01251376   647
Epoch: 2026-09-10T13:36Z
TLE epoch observation values (Epoch: 2026-09-10T13:36:13.725Z)
Latitude
-0.00005°
Longitude
72.58211°
Altitude
273.22 km
Speed
7.744 km/s
True Right ascension
17h 44m 58s
True Declination
0° 00' 00"
Sunlit
Object was in daylight at epoch
Visualization orbit readout
Latitude
Unknown
Longitude
Unknown
Altitude
Unknown
Speed
Unknown
Apparent Right ascension
Unknown
Apparent Declination
Unknown
Sunlit
N/A
Visualization observer readout
Local Sidereal Time
02:29:05
Azimuth
Unknown
Elevation
Unknown
Doppler factor
Unknown
Orbital elements
Apogee altitude
272.209 km
Perigee altitude
265.406 km
Semi-major axis
6,646.945 km
Eccentricity
0.00051
Inclination
69.9972°
RAAN
266.242°
Arg. of periapsis
274.5647°
True anomaly
85.55646°
Mean anomaly
85.498°
Eccentric anomaly
85.52723°
Mean motion
4.00507 °/min
Orbital period
89.89 mins
BSTAR
-0.0021571
Loading maneuver chart data...
Computing Atmospheric mass density...
Loading historical data...
Loading historical data...
Loading historical data...
Loading historical data...
Loading historical data...
Loading historical data...
Loading historical data...

Documentation

Showing up to 5 results
|